Bastia, France

5:12 PM CEST on September 21, 2017 (GMT +0200)
Poretta

Weather History for LFKB - March, 2013

Change the Weather History Date:

Thursday, March 14, 2013

  Actual Average Record
Temperature  
Mean Temperature 49 °F -  
Max Temperature 56 °F 60 °F 68 °F (2007)
Min Temperature 42 °F 44 °F 39 °F (2014)
Degree Days  
Heating Degree Days 16    
Moisture  
Dew Point 40 °F    
Average Humidity 71    
Maximum Humidity 93    
Minimum Humidity 46    
Precipitation  
Precipitation 0.08 in - - ()
Sea Level Pressure  
Sea Level Pressure 29.26 in    
Wind  
Wind Speed 7 mph ()    
Max Wind Speed 23 mph    
Max Gust Speed 34 mph    
Visibility 6.0 miles    
Events Rain , Thunderstorm    
Averages and records for this station are not official NWS values.
T = Trace of Precipitation, MM = Missing Value Source: Averaged Metar Reports

Daily Weather History Graph

Daily Weather History Graph

Search for Another Location

Airport or City:

Trip Planner

Search our weather history database for the weather conditions in past years. The results will help you decide how hot, cold, wet, or windy it might be!

Date:

Astronomy

Mar. 14, 2013 Rise Set
Actual Time 6:35 AM CET 6:27 PM CET
Civil Twilight 6:07 AM CET 6:55 PM CET
Nautical Twilight 5:35 AM CET 7:28 PM CET
Astronomical Twilight 5:01 AM CET 8:01 PM CET
Moon 7:35 AM CET (3/14) 9:32 PM CET (3/14)
Length of Visible Light 12h 47m
Length of Day
11h 51m
Waxing Crescent, 7% of the Moon is Illuminated
Mar 14
Waxing Crescent
Mar 19
First Quarter
Mar 27
Full
Apr 3
Last Quarter
Apr 10
New

Hourly Weather History & Observations

Time (CET) Temp. Windchill Dew Point Humidity Pressure Visibility Wind Dir Wind Speed Gust Speed Precip Events Conditions
12:00 AM 46.4 °F 44.3 °F 42.8 °F 87% 29.27 in 6.2 mi West 4.6 mph - N/A   Overcast
12:30 AM 46.4 °F 44.3 °F 42.8 °F 87% 29.27 in 3.1 mi SW 4.6 mph - N/A   Overcast
1:00 AM 46 °F - 42 °F 80% 29.29 in 6 mi SW 4.6 mph - -   Clear
1:00 AM 46.4 °F 44.3 °F 42.8 °F 87% 29.27 in 5.6 mi SW 4.6 mph - N/A   Unknown
1:30 AM 46.4 °F 44.3 °F 41.0 °F 81% 29.27 in 6.2 mi SW 4.6 mph - N/A   Unknown
2:00 AM 46.4 °F 45.2 °F 41.0 °F 81% 29.27 in 6.2 mi SW 3.5 mph - N/A   Unknown
2:30 AM 44.6 °F 43.1 °F 41.0 °F 87% 29.27 in 6.2 mi West 3.5 mph - N/A   Mostly Cloudy
3:00 AM 44.6 °F 43.1 °F 41.0 °F 87% 29.27 in 6.2 mi Variable 3.5 mph - N/A   Mostly Cloudy
3:30 AM 44.6 °F - 41.0 °F 87% 29.24 in 6.2 mi Variable 2.3 mph - N/A   Mostly Cloudy
4:00 AM 42.8 °F - 39.2 °F 87% 29.24 in 6.2 mi Calm Calm - N/A   Mostly Cloudy
4:30 AM 42.8 °F 41.1 °F 39.2 °F 87% 29.24 in 6.2 mi NW 3.5 mph - N/A   Mostly Cloudy
6:00 AM 46.4 °F 43.5 °F 41.0 °F 81% 29.24 in 6.2 mi WNW 5.8 mph - N/A   Mostly Cloudy
6:30 AM 48.2 °F - 41.0 °F 76% 29.21 in 6.2 mi WNW 9.2 mph - N/A   Scattered Clouds
7:00 AM 47 °F - 40 °F 68% 29.24 in 31 mi WSW 2.3 mph - - Thunderstorm Thunderstorm
7:00 AM 48.2 °F - 39.2 °F 71% 29.24 in 6.2 mi Variable 2.3 mph - N/A Thunderstorm Thunderstorm
7:30 AM 50.0 °F - 42.8 °F 76% 29.24 in 5.0 mi West 8.1 mph - N/A Rain , Thunderstorm Light Thunderstorms and Rain
8:00 AM 48.2 °F - 42.8 °F 82% 29.21 in 6.2 mi WSW 8.1 mph - N/A Rain , Thunderstorm Light Thunderstorms and Rain
8:30 AM 48.2 °F - 42.8 °F 82% 29.24 in 6.2 mi West 6.9 mph - N/A Rain Light Rain Showers
9:00 AM 48.2 °F - 42.8 °F 82% 29.24 in 6.2 mi SW 10.4 mph - N/A   Mostly Cloudy
10:00 AM 53.6 °F - 44.6 °F 72% 29.24 in 6.2 mi NW 9.2 mph - N/A Rain Light Rain Showers
10:30 AM 53.6 °F - 44.6 °F 72% 29.24 in 6.2 mi Variable 5.8 mph - N/A   Mostly Cloudy
11:00 AM 55.4 °F - 42.8 °F 63% 29.24 in 6.2 mi Variable 5.8 mph - N/A   Scattered Clouds
11:30 AM 53.6 °F - 42.8 °F 67% 29.24 in 6.2 mi WNW 11.5 mph - N/A   Scattered Clouds
12:00 PM 53.6 °F - 42.8 °F 67% 29.24 in 6.2 mi West 15.0 mph - N/A   Scattered Clouds
12:37 PM 55.4 °F - 41.0 °F 58% 29.24 in 6.2 mi WNW 16.1 mph - N/A   Scattered Clouds
1:00 PM 55 °F - 40 °F 46% 29.24 in 12 mi WNW 23.0 mph - -   Partly Cloudy
1:00 PM 55.4 °F - 41.0 °F 58% 29.24 in 6.2 mi WNW 23.0 mph 34.5 mph N/A   Scattered Clouds
1:30 PM 55.4 °F - 37.4 °F 51% 29.21 in 6.2 mi WNW 20.7 mph 33.4 mph N/A   Scattered Clouds
2:00 PM 53.6 °F - 35.6 °F 51% 29.21 in 6.2 mi WNW 15.0 mph 29.9 mph N/A   Scattered Clouds
2:30 PM 55.4 °F - 35.6 °F 47% 29.21 in 6.2 mi WNW 18.4 mph - N/A   Scattered Clouds
3:00 PM 55.4 °F - 35.6 °F 47% 29.21 in 6.2 mi WNW 16.1 mph - N/A   Scattered Clouds
3:47 PM 55.4 °F - 35.6 °F 47% 29.21 in 6.2 mi WNW 13.8 mph 26.5 mph N/A   Scattered Clouds
4:12 PM 55.4 °F - 35.6 °F 47% 29.24 in 6.2 mi WNW 17.3 mph - N/A   Scattered Clouds
4:30 PM 55.4 °F - 35.6 °F 47% 29.24 in 6.2 mi WNW 17.3 mph - N/A   Scattered Clouds
5:00 PM 53.6 °F - 33.8 °F 47% 29.24 in 6.2 mi WNW 11.5 mph - N/A   Scattered Clouds
5:30 PM 51.8 °F - 35.6 °F 54% 29.24 in 6.2 mi Variable 4.6 mph - N/A   Scattered Clouds
6:00 PM 51.8 °F - 33.8 °F 50% 29.24 in 6.2 mi Variable 3.5 mph - N/A   Scattered Clouds
6:14 PM 51.8 °F - 32.0 °F 47% 29.24 in 6.2 mi SSE 5.8 mph - N/A   Scattered Clouds
6:30 PM 50.0 °F - 33.8 °F 54% 29.27 in 6.2 mi ENE 4.6 mph - N/A   Scattered Clouds
7:00 PM 49 °F - 38 °F 56% 29.29 in 25 mi NNW 20.7 mph - - Thunderstorm Thunderstorm
7:00 PM 50.0 °F - 37.4 °F 62% 29.27 in 6.2 mi NNW 19.6 mph - N/A Thunderstorm Scattered Clouds
7:30 PM 48.2 °F - 39.2 °F 71% 29.30 in 6.2 mi WNW 17.3 mph - N/A Rain Light Rain
8:00 PM 46.4 °F 41.5 °F 41.0 °F 81% 29.30 in 6.2 mi NW 10.4 mph - N/A Rain Rain
8:30 PM 44.6 °F 40.7 °F 39.2 °F 81% 29.30 in 5.6 mi North 6.9 mph - N/A Rain , Thunderstorm Thunderstorms and Rain
9:00 PM 44.6 °F - 41.0 °F 87% 29.33 in 5.0 mi Variable 2.3 mph - N/A Rain , Thunderstorm Thunderstorms and Rain
9:30 PM 44.6 °F 38.4 °F 42.8 °F 93% 29.33 in 5.0 mi NW 12.7 mph - N/A Rain , Thunderstorm Thunderstorms and Rain
10:00 PM 44.6 °F 39.7 °F 41.0 °F 87% 29.33 in 4.3 mi West 9.2 mph - N/A Rain , Thunderstorm Light Thunderstorms and Rain
10:30 PM 42.8 °F 37.0 °F 39.2 °F 87% 29.36 in 2.5 mi WNW 10.4 mph - N/A Rain , Thunderstorm Thunderstorms and Rain
11:00 PM 42.8 °F 37.0 °F 41.0 °F 93% 29.36 in 6.2 mi WNW 10.4 mph - N/A Rain Light Rain
11:30 PM 42.8 °F 38.0 °F 39.2 °F 87% 29.36 in 6.2 mi WNW 8.1 mph - N/A Rain Light Rain